Presure
152 157 158 150 147 145 149 150 144 147 153 157 153 151 154 152 152 151 154 155 136 155 155 169 171 167 167 170 174 177 189 188 191 194 172 200 191 200 203 229 197 191 218
129 140 126 146 152 155 151 153 150 149 149 150 154 152 150 149 151 156 161 160 168 163 162 165 163 164 169 173 154 184 180 183 159 181 198 193 177 188 247 217 196 227 227
159 157 158 142 160 159 159 159 159 155 156 156 154 155 158 162 155 156 147 168 164 161 161 167 166 155 137 177 169 175 170 182 175 201 165 199 207 249 221 202 233 216 221
170 164 166 166 162 161 160 162 162 161 158 160 160 160 164 158 164 163 161 162 173 176 148 137 154 162 182 171 155 191 177 195 201 180 213 208 244 222 237 232 222 226 224
180 179 171 159 178 179 172 170 170 164 160 160 175 160 161 172 172 171 169 169 156 179 182 171 186 156 188 177 186 180 200 201 183 211 244 244 229 230 232 235 231 234 229
149 178 182 181 179 173 171 170 173 180 179 173 168 174 174 180 184 184 159 182 148 174 162 175 174 192 169 192 201 197 204 211 220 216 189 236 235 245 245 240 244 242 255
188 176 160 166 178 179 180 183 186 181 181 181 175 178 179 185 167 169 155 165 176 158 190 175 183 192 187 199 205 212 204 242 236 256 257 259 271 287 300 270 269 260 251
191 192 187 185 181 183 162 166 155 155 157 163 163 166 177 155 153 179 187 179 188 187 183 177 190 198 190 190 204 205 244 237 261 261 304 306 279 277 245 244 229 244 249
180 187 194 186 183 185 184 179 176 171 172 169 172 173 167 170 180 179 175 177 182 181 184 186 184 193 196 207 248 246 253 250 296 275 286 269 253 257 258 225 248 282 223
184 181 182 183 183 188 186 186 184 175 174 172 171 169 164 176 174 177 176 179 185 189 189 198 199 208 249 241 249 249 294 268 280 274 292 378 353 377 329 325 279 280 270
195 190 188 189 190 185 183 185 186 186 184 183 183 180 184 186 188 188 191 194 178 197 203 204 253 250 250 249 267 268 276 262 267 265 273 387 357 332 309 316 332 292 281
202 198 198 198 193 189 188 194 198 198 195 196 194 192 192 84 194 196 192 202 204 243 250 251 250 248 248 288 279 257 268 261 260 250 263 383 360 345 338 346 336 360 290
244 240 234 206 201 194 195 194 198 199 197 192 187 192 175 187 207 208 222 244 251 242 246 241 250 292 262 262 270 262 263 249 229 279 303 342 346 352 344 330 333 334 328
241 241 239 235 233 231 229 227 213 216 224 224 220 221 231 240 247 252 250 239 242 236 243 284 279 273 262 269 268 268 244 237 250 277 264 261 317 322 344 414 354 365 331
254 238 236 240 245 251 252 251 252 252 254 258 260 260 259 253 245 240 241 235 240 260 288 281 266 254 271 275 262 239 239 222 252 258 266 271 300 312 301 309 334 337 319
262 260 256 237 252 256 268 251 251 258 250 250 254 243 239 241 241 235 243 250 264 293 279 261 250 267 273 259 240 239 240 224 262 255 249 251 267 251 292 290 282 283 286
276 280 263 272 263 257 254 259 249 246 245 241 238 241 243 235 240 240 249 291 282 272 263 242 263 258 239 253 219 235 216 210 246 251 251 248 242 250 258 244 240 263 268
254 248 259 260 261 258 251 244 238 238 233 233 234 233 234 236 236 262 279 276 268 253 257 252 271 240 264 235 233 227 210 229 234 239 246 244 242 240 238 237 236 229 222
247 254 250 240 239 239 241 238 242 233 233 237 232 236 232 237 264 274 272 258 249 277 242 264 246 263 228 238 234 227 222 238 233 217 232 236 241 242 242 234 233 230 229
258 246 238 239 235 232 233 234 233 236 236 230 241 262 268 283 271 265 256 252 254 240 260 264 219 255 237 236 242 230 224 219 221 216 228 223 231 231 230 230 228 229 231
261 263 259 248 241 237 235 234 228 242 264 267 267 269 265 265 258 248 255 256 242 247 216 216 224 229 231 240 245 236 226 215 217 214 222 218 217 225 228 225 226 228 229
253 254 254 259 259 254 256 256 267 263 255 258 260 261 254 244 251 243 246 255 231 208 208 204 226 221 227 240 236 239 225 218 216 210 217 218 218 218 222 221 224 226 225
253 256 254 256 253 258 256 260 250 252 251 251 251 243 221 244 248 252 247 240 218 206 210 216 227 228 236 237 238 238 228 218 215 218 216 222 220 218 217 220 221 226 228
248 245 245 247 243 260 248 251 247 246 238 237 239 251 252 234 247 239 254 236 230 232 232 230 237 238 239 242 233 239 237 227 218 216 219 226 221 216 216 219 222 227 228
270 268 265 260 249 248 249 238 238 233 226 225 251 246 243 248 231 269 267 239 226 219 233 238 244 244 242 243 242 235 243 225 216 215 225 221 220 216 216 224 221 230 226
258 257 254 250 248 248 237 234 225 222 222 253 250 238 237 234 222 261 262 257 277 264 258 239 238 239 192 208 251 238 234 220 214 225 210 206 215 211 221 227 233 236 233
Wind_Speed
77 84 90 86 81 75 82 87 79 77 87 92 90 88 92 87 89 91 88 93 60 96 98 108 108 103 101 105 111 112 115 109 106 109 94 112 102 108 103 96 96 94 86
53 71 52 83 88 91 85 88 84 82 84 83 89 87 84 82 84 92 99 100 104 104 101 105 103 102 105 106 84 112 105 104 90 101 111 105 94 102 96 95 99 95 89
92 91 95 80 96 94 95 96 96 91 94 97 93 95 99 103 88 88 78 103 102 99 99 105 102 90 72 108 100 104 99 107 101 119 95 111 111 99 108 105 99 102 99
104 101 105 105 99 96 98 101 100 99 96 99 100 100 103 95 104 104 94 95 106 108 76 69 87 93 113 104 92 112 103 116 120 101 129 118 109 119 105 105 109 106 101
101 105 103 92 107 108 106 104 104 102 98 95 105 92 92 102 103 103 101 100 84 109 112 97 110 87 114 106 106 104 122 117 100 126 113 107 118 119 114 108 107 108 105
78 98 103 104 104 100 100 99 99 102 102 99 95 101 101 104 107 108 88 107 82 105 94 103 100 116 93 111 122 117 122 129 126 121 100 113 114 111 112 113 110 110 107
110 99 82 87 102 101 102 105 108 105 105 106 97 97 100 107 92 91 84 93 103 89 116 104 114 118 112 124 128 130 123 120 131 118 113 113 114 98 91 97 95 98 100
108 112 109 110 107 106 83 86 83 82 83 85 85 89 102 84 83 107 115 106 113 112 109 104 116 126 116 114 127 129 126 128 118 119 105 96 96 94 89 88 90 95 94
96 104 112 103 102 106 106 99 96 93 94 93 96 99 93 96 107 106 102 103 109 108 110 110 108 120 124 129 111 118 116 119 103 104 102 99 92 94 95 80 85 90 96
101 97 97 98 99 105 102 104 106 99 99 98 97 96 92 102 103 107 105 107 113 118 120 127 125 130 108 114 108 111 89 97 99 97 92 70 68 61 64 69 88 77 88
111 105 104 106 106 101 99 102 105 106 105 104 107 105 109 112 116 117 119 124 109 127 130 128 104 105 104 106 101 89 87 90 91 90 85 57 57 57 59 64 67 77 83
108 107 109 110 109 102 102 109 113 114 114 116 114 112 115 34 115 120 117 124 125 111 98 98 99 101 102 76 78 83 76 82 88 84 72 47 48 52 50 49 54 61 82
110 111 111 108 108 106 107 107 110 112 112 109 104 111 97 106 119 119 116 108 94 97 93 95 98 76 84 77 72 72 70 74 76 65 54 35 27 34 41 44 46 51 62
106 107 108 107 107 107 108 108 108 109 109 109 111 111 111 107 101 93 87 94 90 92 93 84 74 70 72 67 64 60 64 69 65 55 54 55 33 36 28 31 33 43 48
103 104 103 106 106 106 104 105 104 104 99 95 85 81 77 80 83 85 86 90 91 92 76 68 66 69 62 56 54 60 59 62 53 53 50 47 42 39 35 35 25 11 19
89 90 94 99 95 88 74 89 88 76 81 78 71 80 82 81 81 85 85 85 88 66 63 61 64 59 55 52 54 54 54 56 45 44 48 49 46 40 37 34 28 22 13
60 56 76 63 69 73 76 69 73 74 74 74 76 77 78 79 81 82 85 63 64 57 59 61 57 52 52 48 52 50 54 56 46 44 44 43 43 42 38 32 28 23 19
66 69 63 62 62 62 63 67 71 72 73 75 76 76 78 78 79 82 62 57 54 56 54 54 51 51 46 50 49 49 53 49 46 44 41 40 38 35 31 29 28 28 30
69 63 61 65 64 63 63 65 66 73 75 77 75 78 73 78 77 56 56 52 51 50 52 48 48 44 45 46 47 48 49 46 45 50 44 41 40 39 38 35 34 32 31
68 67 65 62 62 64 66 68 68 71 72 73 79 72 69 51 54 52 54 50 47 48 45 45 44 43 46 46 44 47 48 49 49 51 47 47 45 43 42 42 41 41 42
48 53 63 66 66 66 66 65 65 71 62 53 53 51 50 53 52 50 48 47 43 43 40 42 42 42 43 45 44 45 46 50 50 52 49 50 49 48 47 47 47 48 49
49 50 52 51 52 57 57 58 48 46 50 49 48 47 50 48 48 46 46 45 41 42 44 46 43 43 44 44 45 45 47 50 52 54 53 53 53 53 53 54 55 55 55
51 50 52 51 50 47 47 38 45 42 44 45 45 48 46 45 45 43 43 41 42 44 45 45 46 47 47 46 45 46 48 51 53 53 55 55 55 56 56 59 59 61 62
49 48 47 46 45 38 41 39 40 40 42 47 47 44 40 39 40 41 41 41 42 43 45 47 48 49 48 49 47 48 48 51 53 55 56 56 58 59 60 62 63 65 66
40 41 40 37 40 39 36 38 39 41 45 45 45 40 38 39 38 37 37 41 43 45 46 46 47 48 49 49 49 48 50 53 55 58 57 58 60 63 65 66 66 70 70
39 39 39 39 37 35 37 37 41 43 43 42 42 37 35 36 39 37 36 37 36 38 42 46 47 48 54 53 51 50 51 55 57 59 60 63 64 65 69 70 72 73 74
Wind_Direction
247 245 242 248 254 258 256 255 263 267 266 263 265 270 272 272 273 276 280 285 281 287 290 288 289 292 294 295 295 296 298 299 301 302 297 303 300 303 302 300 299 298 296
238 242 239 249 252 253 253 258 261 266 268 271 271 272 273 276 279 282 280 282 282 285 288 289 291 294 294 294 291 296 298 298 294 297 300 299 296 298 300 297 297 296 294
243 246 248 249 252 254 255 257 258 263 265 266 270 273 274 275 280 282 277 280 282 284 287 288 290 289 288 294 294 295 296 297 294 299 294 299 300 298 300 300 297 297 296
240 245 246 248 252 254 256 257 259 261 264 265 267 269 270 272 276 279 283 284 281 282 281 281 287 290 292 292 290 296 293 297 299 295 302 301 301 302 298 296 296 295 294
240 241 246 251 250 252 255 257 258 260 263 266 266 272 275 273 273 275 279 282 284 286 286 287 288 286 292 292 294 291 297 299 295 300 300 298 298 298 296 295 292 290 289
238 245 248 248 250 254 256 258 260 261 263 266 269 270 272 274 275 276 278 281 282 285 286 289 288 292 288 293 296 296 298 298 299 299 298 295 294 293 291 289 286 285 282
243 245 243 249 254 255 257 259 259 262 265 267 270 275 277 278 275 278 277 281 282 282 288 290 291 293 294 296 297 298 298 298 297 297 296 296 293 289 274 282 275 274 275
244 247 248 251 254 257 254 258 259 262 264 267 269 272 276 273 274 282 283 284 286 287 288 287 292 294 294 295 296 297 298 298 298 300 294 292 292 289 286 284 285 280 276
245 246 248 250 253 256 259 262 263 265 267 269 271 273 274 277 280 281 281 284 286 287 288 290 290 292 293 295 298 298 299 299 299 299 298 298 294 289 285 283 280 266 273
245 247 249 251 253 256 257 260 262 264 266 268 270 271 274 277 278 279 280 283 285 287 287 288 290 292 297 297 299 299 298 298 301 304 303 290 285 278 268 255 255 247 254
244 246 249 252 254 255 257 259 261 263 265 267 269 270 273 275 276 277 281 282 284 284 286 288 295 296 297 299 299 299 299 300 304 306 305 295 285 281 272 263 251 241 241
244 246 248 250 253 255 257 258 260 263 265 267 269 270 271 281 277 278 279 281 282 290 292 292 294 296 298 297 298 299 301 302 306 308 310 308 294 287 284 271 260 249 236
247 248 249 250 252 255 257 259 260 262 263 265 268 270 273 274 275 277 281 287 288 288 291 293 295 296 296 295 298 301 302 303 306 322 331 349 338 304 283 276 267 249 239
249 251 252 254 256 257 259 259 260 262 265 267 268 271 276 278 281 283 284 284 286 288 291 294 294 294 294 296 298 301 302 304 313 329 330 330 2 17 349 294 272 255 240
247 251 253 255 257 260 263 264 266 269 272 274 276 277 280 280 280 282 283 284 287 291 293 291 293 293 296 293 297 298 303 304 318 328 338 340 355 14 15 19 352 302 254
247 250 252 254 258 260 263 264 267 271 270 273 274 276 278 280 281 281 285 288 291 289 287 290 292 294 295 295 295 299 306 307 323 329 331 338 348 339 12 13 15 13 336
250 248 253 253 256 257 261 264 266 268 271 273 274 277 279 279 283 284 288 288 288 286 287 290 292 293 293 297 295 300 302 306 322 328 332 334 339 347 356 345 347 360 353
245 250 252 254 256 258 260 262 266 268 270 272 274 276 278 281 284 287 286 286 285 286 286 289 290 291 292 293 297 298 301 310 318 324 328 330 330 331 335 340 339 331 317
242 246 249 254 256 259 260 262 263 266 269 271 274 276 278 281 285 282 285 286 285 282 286 288 288 288 291 293 296 298 302 312 315 314 323 326 329 332 334 330 326 320 311
239 245 250 251 254 257 260 262 265 267 270 275 276 280 281 278 277 281 286 287 286 284 286 286 287 290 292 295 295 297 303 306 310 313 320 322 327 327 327 325 322 319 317
239 244 248 248 252 256 260 264 268 272 274 275 273 275 276 277 279 286 286 287 280 282 279 284 289 293 293 295 296 297 301 305 308 311 315 317 319 321 321 320 318 317 315
240 242 247 249 252 257 262 266 269 269 270 270 273 275 276 284 284 283 285 283 277 276 280 284 290 292 294 295 296 296 299 303 305 308 312 314 315 318 319 319 317 315 314
244 245 249 252 255 256 263 258 263 263 266 272 276 276 280 285 286 284 282 280 275 277 282 286 289 291 293 294 295 294 296 300 303 306 309 310 312 313 314 315 313 312 312
243 246 249 251 253 252 253 256 257 263 268 273 278 285 285 282 287 282 283 278 279 280 283 287 287 289 292 293 294 296 296 297 300 304 306 307 308 310 311 311 311 310 310
242 244 245 242 243 246 247 252 260 263 270 280 285 285 285 290 283 291 287 277 278 281 284 284 286 289 291 294 296 295 298 297 302 304 303 305 306 308 309 309 310 309 309
237 236 236 237 240 240 246 254 262 270 274 280 282 285 284 284 279 291 289 284 283 281 279 284 287 289 296 294 295 295 295 298 303 301 304 306 305 308 307 307 307 308 309